When you browse on this site, cookies collect data to enhance your experience and personalize the content and advertising you see.
Visit our Privacy Policy to learn more. By continuing to use the site, you agree to this use of cookies and data.
  • In Hungary
  • List of Countries
  • For 7 days
  • Water Temperature
  • Satellite Maps
  • Weather Map
  • News
  • Weather Widgets
  • user-avatar
    Login

    Hourly Weather Atlantic City

    Today, 23 February, Saturday

    Time Temperature Precipitation Wind Pressure Humidity
    00:00 +4°C° 0 mm 1 mps 773 mmHg 68%
    01:00 +3°C° 0 mm 2 mps 773 mmHg 68%
    02:00 +3°C° 0 mm 2 mps 773 mmHg 68%
    03:00 +1°C° 0 mm 3 mps 773 mmHg 67%
    04:00 +1°C° 0 mm 3 mps 773 mmHg 67%
    05:00 +1°C° 0 mm 3 mps 773 mmHg 69%
    06:00 +1°C° 0 mm 3 mps 773 mmHg 71%
    07:00 +1°C° 0 mm 3 mps 773 mmHg 73%
    08:00 +3°C° 0 mm 2 mps 773 mmHg 70%
    09:00 +5°C° 0 mm 2 mps 773 mmHg 67%
    10:00 +6°C° 0 mm 2 mps 774 mmHg 64%
    11:00 +5°C° 0 mm 3 mps 773 mmHg 63%
    12:00 +5°C° 0 mm 3 mps 773 mmHg 62%
    13:00 +7°C° 0 mm 3 mps 772 mmHg 62%
    14:00 +5°C° 0 mm 3 mps 772 mmHg 63%
    15:00 +5°C° 0 mm 3 mps 771 mmHg 65%
    16:00 +5°C° 0 mm 3 mps 771 mmHg 67%
    17:00 +5°C° 0 mm 3 mps 771 mmHg 71%
    18:00 +4°C° 0 mm 3 mps 770 mmHg 74%
    19:00 +4°C° 0 mm 4 mps 770 mmHg 77%
    20:00 +4°C° 0.1 mm 4 mps 769 mmHg 80%
    21:00 +3°C° 0.1 mm 5 mps 768 mmHg 83%
    22:00 +3°C° 0.1 mm 5 mps 768 mmHg 85%
    23:00 +5°C° 0 mm 5 mps 767 mmHg 88%

    Tomorrow, 24 February, Sunday

    Time Temperature Precipitation Wind Pressure Humidity
    00:00 +5°C° 0 mm 5 mps 766 mmHg 90%
    01:00 +6°C° 0 mm 5 mps 765 mmHg 93%
    02:00 +6°C° 0.7 mm 5 mps 764 mmHg 94%
    03:00 +7°C° 0.7 mm 5 mps 762 mmHg 96%
    04:00 +8°C° 0.7 mm 6 mps 761 mmHg 97%
    05:00 +8°C° 3.2 mm 6 mps 760 mmHg 97%
    06:00 +9°C° 3.2 mm 7 mps 758 mmHg 97%
    07:00 +9°C° 3.2 mm 7 mps 757 mmHg 98%
    08:00 +9°C° 3.2 mm 7 mps 756 mmHg 98%
    09:00 +9°C° 3.2 mm 6 mps 755 mmHg 98%
    10:00 +9°C° 3.2 mm 6 mps 753 mmHg 98%
    11:00 +10°C° 0.3 mm 6 mps 752 mmHg 97%
    12:00 +11°C° 0.3 mm 7 mps 751 mmHg 97%
    13:00 +11°C° 0.3 mm 7 mps 750 mmHg 96%
    14:00 +12°C° 0.4 mm 8 mps 748 mmHg 95%
    15:00 +13°C° 0.4 mm 8 mps 747 mmHg 94%
    16:00 +13°C° 0.4 mm 9 mps 746 mmHg 93%
    17:00 +11°C° 0 mm 10 mps 747 mmHg 83%
    18:00 +9°C° 0 mm 11 mps 749 mmHg 73%
    19:00 +7°C° 0 mm 11 mps 750 mmHg 62%
    20:00 +6°C° 0 mm 11 mps 751 mmHg 62%
    21:00 +4°C° 0 mm 11 mps 751 mmHg 62%
    22:00 +5°C° 0 mm 10 mps 752 mmHg 62%
    23:00 +3°C° 0 mm 11 mps 753 mmHg 60%

    Day after tomorrow, 25 February, Monday

    Time Temperature Precipitation Wind Pressure Humidity
    00:00 +2°C° 0 mm 11 mps 753 mmHg 57%
    01:00 +2°C° 0 mm 12 mps 753 mmHg 54%
    02:00 0°C° 0 mm 12 mps 754 mmHg 54%
    03:00 -1°C° 0 mm 13 mps 754 mmHg 53%
    04:00 -2°C° 0 mm 13 mps 755 mmHg 52%
    05:00 -2°C° 0 mm 13 mps 756 mmHg 53%
    06:00 -4°C° 0 mm 13 mps 757 mmHg 53%
    07:00 -5°C° 0 mm 12 mps 758 mmHg 53%
    08:00 -5°C° 0 mm 12 mps 759 mmHg 50%
    09:00 -3°C° 0 mm 12 mps 759 mmHg 46%
    10:00 -2°C° 0 mm 13 mps 760 mmHg 43%
    11:00 -2°C° 0 mm 12 mps 761 mmHg 41%
    12:00 -1°C° 0 mm 12 mps 761 mmHg 40%
    13:00 -1°C° 0 mm 12 mps 762 mmHg 38%
    14:00 -1°C° 0 mm 12 mps 762 mmHg 38%
    15:00 -1°C° 0 mm 12 mps 763 mmHg 37%
    16:00 -1°C° 0 mm 12 mps 763 mmHg 36%
    17:00 -2°C° 0 mm 11 mps 764 mmHg 38%
    18:00 -2°C° 0 mm 11 mps 765 mmHg 40%
    19:00 -3°C° 0 mm 10 mps 766 mmHg 43%
    20:00 -4°C° 0 mm 10 mps 767 mmHg 43%
    21:00 -4°C° 0 mm 10 mps 768 mmHg 43%
    22:00 -5°C° 0 mm 10 mps 769 mmHg 44%
    23:00 -5°C° 0 mm 10 mps 769 mmHg 43%

    26 February, Tuesday

    Time Temperature Precipitation Wind Pressure Humidity
    00:00 -6°C° 0 mm 9 mps 769 mmHg 42%
    01:00 -6°C° 0 mm 9 mps 770 mmHg 42%
    02:00 -6°C° 0 mm 8 mps 770 mmHg 41%
    03:00 -6°C° 0 mm 8 mps 771 mmHg 41%
    04:00 -6°C° 0 mm 8 mps 771 mmHg 41%
    05:00 -6°C° 0 mm 8 mps 772 mmHg 40%
    06:00 -6°C° 0 mm 8 mps 772 mmHg 40%
    07:00 -6°C° 0 mm 7 mps 773 mmHg 40%
    08:00 -4°C° 0 mm 7 mps 773 mmHg 38%
    09:00 -3°C° 0 mm 7 mps 773 mmHg 37%
    10:00 -3°C° 0 mm 7 mps 773 mmHg 35%
    11:00 -2°C° 0 mm 7 mps 773 mmHg 34%
    12:00 -1°C° 0 mm 7 mps 773 mmHg 33%
    13:00 0°C° 0 mm 7 mps 773 mmHg 32%
    14:00 0°C° 0 mm 7 mps 773 mmHg 33%
    15:00 0°C° 0 mm 7 mps 773 mmHg 34%
    16:00 +1°C° 0 mm 6 mps 773 mmHg 35%
    17:00 -1°C° 0 mm 6 mps 773 mmHg 37%
    18:00 -1°C° 0 mm 5 mps 774 mmHg 40%
    19:00 -2°C° 0 mm 4 mps 774 mmHg 43%
    20:00 -2°C° 0 mm 4 mps 774 mmHg 41%
    21:00 -2°C° 0 mm 4 mps 774 mmHg 40%
    22:00 -2°C° 0 mm 3 mps 775 mmHg 39%
    23:00 -2°C° 0 mm 3 mps 775 mmHg 38%

    27 February, Wednesday

    Time Temperature Precipitation Wind Pressure Humidity
    00:00 -2°C° 0 mm 3 mps 775 mmHg 37%
    01:00 -2°C° 0 mm 3 mps 775 mmHg 36%
    02:00 -2°C° 0 mm 3 mps 774 mmHg 37%
    03:00 -2°C° 0 mm 3 mps 774 mmHg 38%
    04:00 -4°C° 0 mm 3 mps 774 mmHg 40%
    05:00 -4°C° 0 mm 3 mps 774 mmHg 42%
    06:00 -4°C° 0 mm 3 mps 774 mmHg 44%
    07:00 -2°C° 0 mm 3 mps 774 mmHg 46%
    08:00 -2°C° 0 mm 4 mps 773 mmHg 47%
    09:00 -1°C° 0 mm 4 mps 773 mmHg 48%
    10:00 0°C° 0 mm 5 mps 773 mmHg 48%
    11:00 +1°C° 0 mm 5 mps 771 mmHg 51%
    12:00 +2°C° 0 mm 6 mps 770 mmHg 54%
    13:00 +3°C° 0 mm 6 mps 769 mmHg 57%
    14:00 +5°C° 0 mm 5 mps 768 mmHg 62%
    15:00 +5°C° 0 mm 5 mps 766 mmHg 66%
    16:00 +6°C° 0 mm 4 mps 765 mmHg 71%
    17:00 +6°C° 0 mm 5 mps 764 mmHg 77%
    18:00 +6°C° 0 mm 5 mps 763 mmHg 84%
    19:00 +5°C° 0 mm 6 mps 762 mmHg 90%
    20:00 +5°C° 1.1 mm 7 mps 762 mmHg 91%
    21:00 +6°C° 1.1 mm 7 mps 761 mmHg 93%
    22:00 +8°C° 1.1 mm 7 mps 760 mmHg 94%
    23:00 +9°C° 0.9 mm 7 mps 760 mmHg 94%

    28 February, Thursday

    Time Temperature Precipitation Wind Pressure Humidity
    00:00 +9°C° 0.9 mm 7 mps 759 mmHg 94%
    01:00 +9°C° 0.9 mm 7 mps 758 mmHg 94%
    02:00 +9°C° 0 mm 7 mps 759 mmHg 92%
    03:00 +8°C° 0 mm 6 mps 759 mmHg 91%
    04:00 +8°C° 0 mm 6 mps 760 mmHg 90%
    05:00 +5°C° 0 mm 6 mps 760 mmHg 87%
    06:00 +5°C° 0 mm 5 mps 761 mmHg 84%
    07:00 +2°C° 0 mm 5 mps 762 mmHg 82%
    08:00 +2°C° 0 mm 5 mps 762 mmHg 73%
    09:00 +2°C° 0 mm 6 mps 763 mmHg 65%
    10:00 +3°C° 0 mm 6 mps 764 mmHg 57%
    11:00 +3°C° 0 mm 5 mps 764 mmHg 50%
    12:00 +5°C° 0 mm 4 mps 764 mmHg 44%
    13:00 +6°C° 0 mm 4 mps 764 mmHg 38%
    14:00 +7°C° 0 mm 3 mps 764 mmHg 38%
    15:00 +7°C° 0 mm 3 mps 764 mmHg 38%
    16:00 +7°C° 0 mm 2 mps 764 mmHg 38%
    17:00 +6°C° 0 mm 2 mps 764 mmHg 42%
    18:00 +4°C° 0 mm 2 mps 765 mmHg 46%
    19:00 +3°C° 0 mm 2 mps 765 mmHg 50%
    20:00 +3°C° 0 mm 2 mps 765 mmHg 52%
    21:00 +2°C° 0 mm 2 mps 765 mmHg 54%
    22:00 +2°C° 0 mm 2 mps 765 mmHg 55%
    23:00 +1°C° 0 mm 3 mps 766 mmHg 55%
    Show more